When you browse on this site, cookies collect data to enhance your experience and personalize the content and advertising you see.
Visit our Privacy Policy to learn more. By continuing to use the site, you agree to this use of cookies and data.

Hourly Weather Nemocon

Today, 4 August, Tuesday

Time Temperature Precipitation Wind Pressure Humidity
00:00 +11°C° 0 mm 1 mps 548 mmHg 95%
01:00 +11°C° 0 mm 1 mps 548 mmHg 95%
02:00 +11°C° 0 mm 1 mps 548 mmHg 95%
03:00 +11°C° 0 mm 1 mps 547 mmHg 95%
04:00 +11°C° 0 mm 1 mps 547 mmHg 95%
05:00 +11°C° 0 mm 1 mps 547 mmHg 94%
06:00 +11°C° 0 mm 1 mps 548 mmHg 93%
07:00 +11°C° 0 mm 1 mps 548 mmHg 92%
08:00 +13°C° 0 mm 2 mps 549 mmHg 84%
09:00 +14°C° 0 mm 2 mps 550 mmHg 76%
10:00 +16°C° 0 mm 2 mps 551 mmHg 67%
11:00 +17°C° 0.2 mm 2 mps 551 mmHg 65%
12:00 +17°C° 0.2 mm 2 mps 551 mmHg 63%
13:00 +18°C° 0.2 mm 3 mps 551 mmHg 61%
14:00 +18°C° 0.4 mm 2 mps 550 mmHg 65%
15:00 +17°C° 0.4 mm 2 mps 549 mmHg 69%
16:00 +16°C° 0.4 mm 2 mps 548 mmHg 73%
17:00 +15°C° 0.3 mm 2 mps 548 mmHg 80%
18:00 +13°C° 0.3 mm 1 mps 547 mmHg 87%
19:00 +11°C° 0.3 mm 1 mps 546 mmHg 94%
20:00 +11°C° 0 mm 1 mps 547 mmHg 94%
21:00 +11°C° 0 mm 1 mps 547 mmHg 94%
22:00 +11°C° 0 mm 1 mps 548 mmHg 95%
23:00 +11°C° 0 mm 1 mps 548 mmHg 94%

Tomorrow, 5 August, Wednesday

Time Temperature Precipitation Wind Pressure Humidity
00:00 +11°C° 0 mm 1 mps 548 mmHg 94%
01:00 +11°C° 0 mm 1 mps 547 mmHg 93%
02:00 +10°C° 0 mm 1 mps 547 mmHg 94%
03:00 +10°C° 0 mm 1 mps 546 mmHg 95%
04:00 +9°C° 0 mm 1 mps 546 mmHg 96%
05:00 +10°C° 0 mm 1 mps 546 mmHg 95%
06:00 +10°C° 0 mm 1 mps 547 mmHg 94%
07:00 +10°C° 0 mm 1 mps 547 mmHg 93%
08:00 +12°C° 0 mm 1 mps 548 mmHg 87%
09:00 +13°C° 0 mm 1 mps 549 mmHg 82%
10:00 +14°C° 0 mm 2 mps 550 mmHg 76%
11:00 +15°C° 0.2 mm 2 mps 549 mmHg 75%
12:00 +15°C° 0.2 mm 2 mps 549 mmHg 74%
13:00 +16°C° 0.2 mm 2 mps 549 mmHg 72%
14:00 +15°C° 0.2 mm 2 mps 548 mmHg 76%
15:00 +14°C° 0.2 mm 2 mps 547 mmHg 81%
16:00 +13°C° 0.2 mm 1 mps 546 mmHg 85%
17:00 +13°C° 0.1 mm 1 mps 546 mmHg 88%
18:00 +12°C° 0.1 mm 1 mps 546 mmHg 91%
19:00 +11°C° 0.1 mm 1 mps 546 mmHg 93%
20:00 +11°C° 0 mm 1 mps 546 mmHg 94%
21:00 +10°C° 0 mm 1 mps 546 mmHg 94%
22:00 +10°C° 0 mm 1 mps 547 mmHg 95%
23:00 +9°C° 0 mm 1 mps 546 mmHg 95%

Day after tomorrow, 6 August, Thursday

Time Temperature Precipitation Wind Pressure Humidity
00:00 +9°C° 0 mm 1 mps 546 mmHg 95%
01:00 +9°C° 0 mm 1 mps 545 mmHg 95%
02:00 +9°C° 0 mm 1 mps 545 mmHg 95%
03:00 +9°C° 0 mm 1 mps 546 mmHg 95%
04:00 +10°C° 0 mm 1 mps 546 mmHg 94%
05:00 +10°C° 0 mm 1 mps 546 mmHg 94%
06:00 +10°C° 0 mm 1 mps 546 mmHg 94%
07:00 +10°C° 0 mm 1 mps 547 mmHg 93%
08:00 +11°C° 0.1 mm 1 mps 547 mmHg 90%
09:00 +12°C° 0.1 mm 1 mps 548 mmHg 87%
10:00 +13°C° 0.1 mm 1 mps 549 mmHg 84%
11:00 +14°C° 0.2 mm 1 mps 549 mmHg 81%
12:00 +15°C° 0.2 mm 2 mps 549 mmHg 78%
13:00 +15°C° 0.2 mm 2 mps 549 mmHg 75%
14:00 +15°C° 0.3 mm 2 mps 548 mmHg 75%
15:00 +15°C° 0.3 mm 2 mps 547 mmHg 75%
16:00 +15°C° 0.3 mm 2 mps 547 mmHg 76%
17:00 +14°C° 0.1 mm 2 mps 547 mmHg 82%
18:00 +12°C° 0.1 mm 1 mps 546 mmHg 88%
19:00 +10°C° 0.1 mm 1 mps 546 mmHg 94%
20:00 +10°C° 0 mm 1 mps 546 mmHg 94%
21:00 +11°C° 0 mm 1 mps 547 mmHg 94%
22:00 +11°C° 0 mm 1 mps 547 mmHg 94%
23:00 +10°C° 0 mm 1 mps 547 mmHg 95%

7 August, Friday

Time Temperature Precipitation Wind Pressure Humidity
00:00 +10°C° 0 mm 1 mps 547 mmHg 95%
01:00 +10°C° 0 mm 1 mps 547 mmHg 95%
02:00 +10°C° 0 mm 1 mps 547 mmHg 95%
03:00 +10°C° 0 mm 1 mps 546 mmHg 95%
04:00 +10°C° 0 mm 1 mps 546 mmHg 95%
05:00 +10°C° 0 mm 1 mps 547 mmHg 94%
06:00 +11°C° 0 mm 1 mps 547 mmHg 93%
07:00 +11°C° 0 mm 1 mps 548 mmHg 91%
08:00 +12°C° 0 mm 1 mps 548 mmHg 88%
09:00 +13°C° 0 mm 1 mps 549 mmHg 84%
10:00 +14°C° 0 mm 1 mps 549 mmHg 80%
11:00 +14°C° 0.2 mm 1 mps 549 mmHg 81%
12:00 +14°C° 0.2 mm 1 mps 548 mmHg 82%
13:00 +14°C° 0.2 mm 2 mps 548 mmHg 83%
14:00 +13°C° 0.2 mm 1 mps 547 mmHg 85%
15:00 +13°C° 0.2 mm 1 mps 547 mmHg 86%
16:00 +13°C° 0.2 mm 1 mps 546 mmHg 87%
17:00 +12°C° 0.1 mm 1 mps 546 mmHg 89%
18:00 +12°C° 0.1 mm 1 mps 547 mmHg 92%
19:00 +11°C° 0.1 mm 1 mps 547 mmHg 94%
20:00 +11°C° 0 mm 1 mps 547 mmHg 94%
21:00 +10°C° 0 mm 1 mps 547 mmHg 95%
22:00 +10°C° 0 mm 1 mps 548 mmHg 95%
23:00 +10°C° 0 mm 1 mps 547 mmHg 95%

8 August, Saturday

Time Temperature Precipitation Wind Pressure Humidity
00:00 +10°C° 0 mm 1 mps 547 mmHg 95%
01:00 +9°C° 0 mm 1 mps 546 mmHg 95%
02:00 +10°C° 0 mm 1 mps 546 mmHg 95%
03:00 +10°C° 0 mm 1 mps 547 mmHg 94%
04:00 +10°C° 0 mm 1 mps 547 mmHg 94%
05:00 +10°C° 0.2 mm 1 mps 547 mmHg 94%
06:00 +10°C° 0.2 mm 1 mps 547 mmHg 94%
07:00 +11°C° 0.2 mm 1 mps 548 mmHg 94%
08:00 +12°C° 0.1 mm 1 mps 549 mmHg 90%
09:00 +13°C° 0.1 mm 1 mps 549 mmHg 86%
10:00 +14°C° 0.1 mm 2 mps 550 mmHg 83%
11:00 +14°C° 0.2 mm 2 mps 550 mmHg 82%
12:00 +14°C° 0.2 mm 2 mps 549 mmHg 82%
13:00 +14°C° 0.2 mm 2 mps 548 mmHg 82%
14:00 +14°C° 0.1 mm 2 mps 548 mmHg 80%
15:00 +15°C° 0.1 mm 2 mps 548 mmHg 78%
16:00 +15°C° 0.1 mm 2 mps 548 mmHg 77%
17:00 +14°C° 0.1 mm 2 mps 547 mmHg 82%
18:00 +12°C° 0.1 mm 2 mps 547 mmHg 88%
19:00 +11°C° 0.1 mm 1 mps 547 mmHg 94%
20:00 +11°C° 0 mm 1 mps 547 mmHg 94%
21:00 +10°C° 0 mm 1 mps 547 mmHg 95%
22:00 +10°C° 0 mm 1 mps 547 mmHg 95%
23:00 +10°C° 0 mm 1 mps 547 mmHg 95%

9 August, Sunday

Time Temperature Precipitation Wind Pressure Humidity
00:00 +10°C° 0 mm 1 mps 547 mmHg 94%
01:00 +10°C° 0 mm 1 mps 547 mmHg 94%
02:00 +10°C° 0.1 mm 1 mps 547 mmHg 94%
03:00 +10°C° 0.1 mm 1 mps 547 mmHg 94%
04:00 +10°C° 0.1 mm 1 mps 547 mmHg 94%
05:00 +11°C° 0.2 mm 1 mps 547 mmHg 94%
06:00 +11°C° 0.2 mm 1 mps 547 mmHg 94%
07:00 +11°C° 0.2 mm 1 mps 548 mmHg 94%
08:00 +11°C° 0.1 mm 1 mps 548 mmHg 92%
09:00 +12°C° 0.1 mm 1 mps 549 mmHg 90%
10:00 +13°C° 0.1 mm 1 mps 549 mmHg 88%
11:00 +13°C° 0.2 mm 1 mps 549 mmHg 86%
12:00 +14°C° 0.2 mm 1 mps 548 mmHg 84%
13:00 +14°C° 0.2 mm 2 mps 548 mmHg 82%
14:00 +15°C° 0.2 mm 2 mps 548 mmHg 80%
15:00 +15°C° 0.2 mm 2 mps 548 mmHg 77%
16:00 +16°C° 0.2 mm 2 mps 547 mmHg 74%
17:00 +14°C° 0.1 mm 2 mps 547 mmHg 81%
18:00 +12°C° 0.1 mm 1 mps 546 mmHg 87%
19:00 +10°C° 0.1 mm 1 mps 546 mmHg 94%
20:00 +10°C° 0 mm 1 mps 546 mmHg 94%
21:00 +10°C° 0 mm 1 mps 546 mmHg 94%
22:00 +10°C° 0 mm 1 mps 547 mmHg 94%
23:00 +10°C° 0 mm 1 mps 547 mmHg 94%
Show more